Temp_Advection
nan nan nan nan nan nan nan nan nan nan nan nan nan nan nan nan nan nan nan nan nan nan nan nan nan nan nan nan nan nan nan nan nan nan nan nan nan nan nan nan nan nan nan nan nan
nan 0 0 0 0 0 -0 -0 -0 -0 -0 -0 -0 0 -0 -0 -0 -1 -0 0 0 0 -0 -0 0 -0 -0 -0 -0 -0 -0 -1 -0 -0 -1 0 0 -0 -0 0 -0 0 -0 -0 nan
nan -0 -0 0 0 -0 -0 -0 -0 -0 -0 -0 0 -0 -0 -0 -1 -1 0 0 0 0 -0 0 -0 -0 0 0 -0 -0 -0 -0 -0 -0 -1 -0 -0 -0 -1 0 -1 -1 -0 -0 nan
nan -0 -0 0 0 0 -0 -0 -0 -0 -0 0 -0 -0 -0 -0 -0 0 0 0 -0 -0 -0 -0 -0 -0 -0 -0 -0 -0 -0 -0 -0 -0 -0 -0 -0 -0 -0 -1 -1 -1 -1 -1 nan
nan -0 -0 0 0 -0 -0 -0 -0 -0 0 -0 -0 -0 -0 -0 -1 -0 -0 -0 -0 -0 -0 -0 -0 -0 -0 -0 -0 -0 -0 0 -0 -0 -0 -0 -0 -0 0 0 1 1 0 -1 nan
nan -0 -0 0 0 -0 -0 -0 -0 0 -0 -0 -0 -0 -0 -0 -0 0 -0 0 -0 -0 -0 -0 -0 0 -0 0 -0 -0 -0 0 0 0 -0 -0 0 -0 0 1 0 0 -0 -0 nan
nan -0 -0 0 0 -0 -0 -0 -0 -0 -0 -0 -0 -0 -1 -1 -0 -0 -0 -0 -0 -0 -0 -0 0 0 -0 -0 -0 -0 -0 -0 -0 0 0 -0 -0 0 -0 0 0 0 -0 0 nan
nan -0 -0 -0 -0 -0 -0 -0 -0 -0 -0 -0 -0 -0 -1 -0 -0 -0 -0 -0 -0 -0 0 0 0 -0 -0 -0 -1 -0 -0 0 -0 0 -0 -0 0 -0 -0 -0 1 1 1 1 nan
nan -0 -0 -0 -0 -0 -0 -0 -0 -0 -0 -0 -0 -0 -1 -0 -0 -0 -0 -0 -0 -0 0 0 -0 -0 -1 -1 -0 -0 -0 0 -0 0 0 -0 0 0 0 1 1 1 0 0 nan
nan -0 -0 -0 -0 -0 -0 -0 -0 -0 -0 -0 -0 -0 -1 -0 -0 -0 -0 0 0 0 -0 -0 -1 -1 -0 0 -0 -0 0 0 0 -0 0 -0 0 -0 2 1 1 1 0 1 nan
nan -0 -0 -0 -0 -0 -0 -0 -0 -0 -0 -1 -0 -0 -0 -0 -0 -0 -0 0 -0 -1 -0 -1 -0 0 0 -0 -0 -0 -0 -0 -0 -0 -0 0 -1 -1 0 1 0 1 1 1 nan
nan -0 -0 -0 -0 -0 -0 -0 -0 0 -0 -1 -0 -0 -0 -0 -0 -0 0 -0 -0 -0 -0 -0 0 -0 -0 -0 0 -0 0 0 -0 -0 -0 -1 -1 -0 -0 0 0 0 1 1 nan
nan -0 0 -0 -0 0 -0 -0 0 0 0 -0 -0 -0 -0 -0 -0 0 0 -0 -0 -0 -0 -0 -0 -0 -0 -0 -0 -0 0 0 -0 -0 -0 -0 -0 0 0 -0 -0 -0 0 1 nan
nan -0 -0 -0 -0 -0 -0 0 0 -0 -0 -1 -0 -0 -0 -0 -0 0 0 -0 -0 0 -0 0 -0 -0 -0 -0 0 0 0 -0 -0 -0 0 -0 0 0 -0 -0 0 0 0 -0 nan
nan -0 -0 -0 -0 -0 -0 0 0 -0 0 -1 -0 0 0 0 0 0 0 -0 -0 0 -0 0 -0 0 0 0 -0 -0 0 0 0 -0 0 -0 -0 0 -0 -0 -0 0 0 -0 nan
nan -0 -0 0 0 -0 -0 0 -0 -1 -0 -0 0 0 0 -0 0 0 0 -0 -1 -0 0 0 0 -0 -0 -0 -0 -0 -0 -1 -0 -0 -0 -0 -0 0 -0 -0 -0 0 0 -0 nan
nan -0 -0 -0 0 0 0 -0 -1 0 0 0 0 0 0 0 -0 -0 -0 -0 0 -0 -0 -0 -0 -0 0 -0 -0 -0 -1 -0 0 -0 -0 -0 -0 -0 -0 -0 -0 -0 -0 0 nan
nan 0 0 -0 -0 0 -0 -1 -0 -0 -0 0 0 -0 0 -0 -0 -0 -0 -0 0 -0 -0 0 -0 0 -0 0 0 -0 -0 -0 0 0 -0 -0 0 0 -0 1 0 -1 -0 0 nan
nan 0 0 0 0 0 -0 -0 -0 -1 -0 -0 -0 0 0 -0 -0 -0 -0 0 0 -0 -0 -0 -0 -0 0 -0 -0 -0 -0 -0 -1 0 0 -0 0 -0 -0 0 1 1 1 1 nan
nan -0 0 0 0 -0 -1 -0 -0 -0 0 -0 -0 0 0 0 -0 -0 0 -0 -0 -0 0 -0 0 -0 -0 -0 -0 -0 -0 -0 0 0 -0 -0 0 0 0 0 0 0 1 0 nan
nan 1 0 0 0 -0 -0 -1 -1 -0 0 -0 -0 -0 0 0 -0 -0 0 -0 -0 0 -0 -0 -0 -0 -0 -0 0 -0 -0 -0 -0 -0 0 0 -0 -0 0 0 0 0 0 0 nan
nan 0 1 -0 -1 -0 -0 -1 -0 -0 -0 -0 -0 -0 -0 -0 -0 0 0 0 -0 0 -0 -0 -0 0 0 -0 -0 -0 -0 -1 0 0 -0 0 -1 -0 0 0 -0 -0 0 0 nan
nan -0 1 0 -0 -0 -1 -0 -0 -0 -0 -0 -0 -0 -0 -0 -0 -0 0 -0 -0 -0 0 -0 -0 0 -0 -0 -0 0 -0 -1 -0 0 -0 -0 -1 0 -0 0 0 0 1 1 nan
nan -0 0 1 -0 -0 -0 -0 0 0 -0 -0 -0 -0 -0 -0 -0 0 0 0 -0 -0 -0 -0 -0 -0 0 0 0 0 -0 -0 -1 -0 -0 -1 -0 0 0 0 1 0 0 0 nan
nan -0 -0 0 -0 0 0 0 0 0 0 -0 -0 -0 -0 -0 -0 -0 0 0 0 -0 -0 -0 0 -0 -0 -0 -0 0 0 0 0 -0 -0 -0 0 0 0 -0 0 0 0 0 nan
nan -0 -0 0 0 -0 0 -0 0 0 0 -0 -0 -0 -0 0 0 -0 0 0 0 -0 -0 -0 0 0 -0 -0 -0 -0 0 0 -0 -0 -0 0 0 0 0 -0 0 0 0 0 nan
nan nan nan nan nan nan nan nan nan nan nan nan nan nan nan nan nan nan nan nan nan nan nan nan nan nan nan nan nan nan nan nan nan nan nan nan nan nan nan nan nan nan nan nan nan
Wind_Speed
21 21 22 21 20 19 18 16 16 15 15 14 12 10 12 13 13 16 17 6 6 5 7 6 8 6 6 4 3 2 4 2 3 14 10 14 6 13 7 19 4 2 21 33 34
21 21 22 22 20 18 17 16 15 14 14 13 10 10 10 11 14 18 5 9 8 7 9 9 7 5 4 3 6 4 4 8 7 8 9 11 19 15 7 7 5 19 26 37 34
22 21 22 21 19 17 16 15 13 14 13 11 9 8 6 8 12 9 6 9 10 9 8 8 8 6 5 5 6 6 3 2 4 13 26 17 13 5 21 2 19 30 38 39 36
20 21 20 19 16 15 14 13 13 13 12 9 8 5 5 6 4 3 2 5 9 10 9 10 7 5 3 4 7 3 3 6 6 16 17 11 14 13 5 11 26 25 37 39 36
19 20 18 17 14 13 12 12 12 12 10 8 6 4 5 6 9 4 2 3 4 8 11 14 14 7 3 4 3 5 5 6 10 10 10 11 7 7 6 22 27 28 39 38 35
18 18 16 14 12 11 11 11 11 10 8 7 5 6 6 5 1 5 6 8 9 8 7 12 11 11 6 8 4 8 5 8 8 10 6 7 4 1 6 29 32 36 38 34 33
17 16 13 12 10 10 10 10 10 9 8 7 6 7 8 13 3 5 5 5 6 2 3 2 6 18 8 5 10 14 6 5 2 2 3 11 3 4 22 31 36 37 34 34 30
15 12 11 10 9 9 9 10 10 9 8 6 5 4 9 6 10 3 3 3 2 2 2 2 2 3 3 14 6 4 5 3 3 4 1 3 7 2 25 32 33 34 34 31 27
12 10 9 10 10 10 10 10 10 8 6 4 4 3 9 5 7 2 1 1 6 2 3 3 3 5 5 6 4 7 2 2 3 4 2 3 4 3 27 32 27 20 16 17 15
10 8 9 11 11 12 12 12 8 6 5 4 2 2 9 2 4 4 2 0 2 2 5 5 4 4 3 5 3 4 1 2 5 5 4 1 9 2 28 19 12 13 13 13 13
7 9 10 12 14 16 16 12 5 3 9 7 3 5 2 6 6 8 4 1 3 6 4 5 6 0 3 1 3 2 2 3 3 1 5 3 6 8 4 18 21 20 22 24 24
7 10 12 15 18 18 16 6 4 2 5 17 12 10 15 8 4 7 5 3 3 2 3 7 2 0 7 5 5 5 6 3 1 5 6 6 8 11 12 9 18 26 28 33 33
10 13 17 19 19 19 14 6 3 3 1 4 16 13 8 5 3 7 4 3 3 2 2 4 3 5 6 6 8 4 4 3 3 4 6 5 6 7 7 19 21 22 28 29 27
14 17 18 18 17 14 10 2 3 6 4 4 3 4 5 7 3 5 5 2 3 4 7 5 5 5 6 6 4 2 1 3 3 4 3 3 2 4 4 7 10 19 23 24 25
16 18 19 16 9 11 5 1 3 2 4 3 3 6 5 3 6 2 3 1 2 5 6 2 3 5 6 1 3 3 2 3 3 3 3 4 5 2 5 2 4 11 21 24 23
19 20 20 10 11 10 3 1 3 6 2 3 4 3 4 2 2 4 4 4 6 5 6 3 2 3 2 2 1 1 4 6 4 3 3 3 4 4 6 6 6 11 20 21 19
20 21 18 11 10 7 1 4 5 4 1 4 3 3 3 2 3 3 4 5 3 5 3 5 4 5 2 2 3 5 5 2 3 3 4 5 3 5 5 5 7 13 21 19 18
21 21 15 11 9 5 3 5 2 3 4 2 5 3 5 3 4 3 3 3 5 4 3 4 4 3 5 2 3 3 4 4 5 3 3 5 2 4 1 20 21 23 21 18 16
23 19 13 10 7 5 4 3 5 6 3 6 5 4 2 2 5 5 3 2 0 2 5 4 1 2 0 1 3 1 3 3 6 3 3 2 2 6 2 11 21 24 22 18 14
22 17 13 10 7 7 5 4 4 4 2 5 5 5 5 5 4 4 1 2 1 4 3 5 3 1 3 2 4 4 4 3 4 2 1 3 3 4 8 7 8 8 18 17 17
20 10 14 11 9 6 3 6 4 4 2 4 5 4 5 6 4 3 1 3 3 2 6 3 4 4 2 3 1 4 2 6 5 3 4 1 5 5 10 8 8 12 21 22 21
17 3 16 15 5 2 3 4 3 2 6 4 4 3 5 4 4 3 4 1 4 0 2 2 5 3 1 5 3 1 3 4 4 2 1 3 5 3 6 15 22 23 25 22 20
13 5 13 15 4 1 4 4 1 2 3 2 2 2 2 5 6 2 3 1 2 3 4 2 2 3 6 6 5 1 2 5 6 3 4 4 5 2 6 6 12 20 18 17 15
10 3 3 6 4 7 3 3 1 4 3 3 3 5 5 5 6 5 3 2 2 4 4 3 3 5 6 4 3 3 3 4 5 3 3 6 4 5 4 7 14 18 19 17 12
7 4 9 4 2 4 5 2 3 2 2 3 4 2 4 4 3 4 2 2 4 2 3 4 3 2 3 4 2 1 4 6 6 5 6 5 7 5 9 8 14 17 18 13 7
7 5 6 7 17 6 3 5 6 2 3 0 5 3 2 6 6 7 6 3 3 3 3 4 1 1 1 5 6 3 5 6 5 4 7 3 5 5 15 12 13 18 14 10 5
7 5 7 1 5 6 5 6 8 6 5 3 9 5 4 2 6 11 6 9 8 5 3 3 4 3 3 4 4 6 9 9 5 4 7 6 8 12 7 13 15 16 12 9 5
Wind_Direction
290 292 292 289 288 286 282 278 271 263 259 261 262 265 262 267 276 277 267 222 218 251 239 194 192 200 210 215 192 223 49 266 217 140 178 162 186 179 156 144 150 196 162 158 151
289 290 288 287 284 281 276 270 264 257 252 253 254 254 260 281 285 272 190 215 229 243 220 213 209 209 209 207 183 152 163 214 191 166 170 167 161 146 125 144 75 122 145 153 155
289 289 286 285 280 276 269 264 256 249 246 245 243 243 263 292 301 264 212 224 232 245 226 228 229 206 211 199 179 197 228 240 258 190 155 159 157 125 132 337 157 148 157 161 162
287 286 285 282 276 268 263 254 245 239 238 237 232 235 264 275 254 10 241 221 221 233 229 228 227 209 181 214 215 220 264 245 116 152 147 167 148 142 136 181 161 164 166 167 169
286 284 282 278 271 263 256 246 234 232 228 224 210 229 253 250 259 2 242 234 215 226 227 210 205 192 189 211 205 143 200 83 134 116 123 140 133 156 178 160 158 162 170 175 177
286 282 277 272 262 252 239 232 227 225 215 203 200 227 239 256 282 5 286 273 269 238 227 220 233 235 240 217 164 152 134 113 110 123 133 119 108 35 151 161 163 169 177 182 187
281 275 270 260 249 238 227 217 212 206 190 189 219 232 244 236 281 316 299 300 292 224 199 254 231 228 176 132 190 126 80 45 3 93 116 109 26 172 164 167 168 179 184 189 200
274 268 254 241 229 220 207 199 189 178 183 200 232 237 252 255 277 280 273 291 246 201 69 315 341 152 65 116 52 77 56 110 270 150 357 99 250 215 171 170 179 186 192 196 201
268 256 238 220 204 195 188 173 165 168 186 204 215 227 263 286 264 201 261 260 183 157 81 133 115 55 73 82 32 17 174 152 331 214 89 102 253 242 185 184 185 190 195 200 207
257 237 215 202 180 171 159 149 153 174 191 190 192 266 265 278 225 207 231 170 128 19 80 58 69 80 58 72 184 228 202 200 209 235 80 335 264 282 185 185 154 175 182 183 190
234 212 192 183 164 157 149 140 148 210 212 208 210 232 343 348 201 221 238 177 32 71 56 15 63 63 56 207 194 158 119 143 235 40 94 228 23 1 103 137 131 133 137 130 126
200 192 173 163 152 151 154 145 97 349 277 235 246 261 272 292 295 232 206 83 53 66 32 17 40 240 79 44 86 78 131 93 128 34 97 80 34 27 41 100 133 128 122 125 121
178 169 158 154 157 161 155 85 346 350 171 255 243 254 265 202 212 162 159 91 105 90 104 131 289 65 104 44 83 37 83 35 119 28 44 103 33 24 28 93 107 116 124 123 123
168 159 156 158 163 180 187 350 16 20 67 284 210 219 202 154 74 122 105 100 61 189 126 81 336 99 68 87 102 58 321 51 52 66 178 62 214 36 9 50 84 131 136 132 131
166 158 156 150 164 170 176 314 20 14 92 239 208 160 141 135 141 94 122 84 118 157 94 203 105 79 64 67 90 187 148 165 140 105 81 11 85 235 104 93 155 150 147 146 147
164 162 158 145 155 166 184 352 138 47 218 191 162 155 88 80 97 100 91 79 85 69 53 94 90 73 159 12 68 109 92 44 50 86 52 329 123 231 195 187 176 170 160 156 152
164 165 165 150 155 158 105 128 47 130 159 160 147 132 113 130 73 78 57 27 101 83 37 16 354 333 60 105 360 71 72 7 15 13 207 328 71 220 235 179 170 162 170 168 170
162 161 162 158 149 148 120 57 204 236 200 156 123 89 152 133 20 56 80 64 24 85 111 124 347 359 339 109 186 48 134 149 183 183 232 346 346 280 216 143 162 171 173 175 179
160 161 157 158 132 146 130 85 218 219 190 121 68 103 137 81 115 89 68 118 86 43 129 129 287 315 334 23 127 163 50 155 105 13 68 264 22 19 22 128 156 173 179 179 175
161 158 157 155 141 142 82 219 241 236 145 105 137 162 168 163 98 91 114 324 97 42 172 191 106 345 306 51 24 126 144 60 10 117 181 288 223 216 211 209 197 154 148 148 156
161 147 166 154 151 132 159 225 270 308 104 111 154 158 180 163 110 82 130 360 354 15 65 114 98 277 15 18 225 4 40 58 106 108 152 187 261 213 195 184 175 158 148 149 148
162 106 169 158 90 84 167 213 306 324 42 57 97 102 153 113 82 114 146 128 340 194 81 40 122 103 197 290 290 173 125 113 106 201 61 145 274 355 194 165 159 161 160 158 164
146 116 168 170 137 270 268 282 12 49 38 52 90 75 96 126 101 96 97 16 23 77 145 160 35 69 356 352 350 157 84 91 101 90 199 130 263 86 57 118 171 158 161 157 155
153 101 129 173 141 141 167 259 96 46 60 70 100 80 83 60 31 139 123 36 47 102 103 122 100 150 181 204 180 158 129 112 114 120 192 226 217 212 172 153 155 160 159 159 164
175 195 158 188 220 145 152 196 138 106 63 49 46 68 126 110 78 107 124 139 51 79 72 87 116 90 52 11 20 161 164 173 185 188 172 246 215 222 188 172 163 165 167 169 181
168 155 141 158 164 128 128 207 160 169 139 68 108 21 57 145 173 188 142 164 184 39 70 12 158 86 118 5 10 293 228 229 229 215 254 231 243 191 168 172 170 176 179 187 202
195 159 165 140 116 111 202 185 201 136 50 73 142 101 51 332 117 104 98 117 133 129 107 76 115 86 257 345 338 329 224 190 197 195 165 182 220 160 182 189 184 183 194 205 229
Height
1517 1516 1513 1513 1512 1511 1510 1508 1509 1509 1509 1510 1510 1510 1510 1509 1509 1508 1505 1507 1508 1509 1510 1509 1509 1510 1511 1512 1512 1514 1521 1525 1518 1518 1522 1516 1523 1521 1518 1518 1521 1522 1522 1528 1535
1513 1511 1510 1509 1508 1508 1507 1506 1506 1507 1507 1508 1508 1508 1508 1508 1507 1504 1504 1505 1506 1508 1508 1508 1509 1510 1512 1511 1513 1514 1524 1517 1507 1506 1511 1512 1515 1517 1519 1522 1523 1521 1527 1531 1537
1509 1507 1506 1505 1505 1504 1503 1503 1503 1505 1505 1506 1507 1507 1508 1508 1507 1501 1502 1503 1505 1506 1507 1507 1509 1511 1511 1510 1510 1511 1511 1503 1501 1504 1504 1515 1517 1516 1519 1524 1520 1522 1527 1532 1536
1505 1504 1502 1502 1501 1501 1501 1501 1502 1503 1503 1505 1505 1507 1508 1508 1509 1501 1501 1501 1503 1504 1505 1506 1507 1510 1508 1508 1505 1508 1505 1504 1502 1506 1510 1514 1515 1516 1517 1517 1519 1521 1525 1531 1536
1501 1500 1499 1498 1498 1498 1498 1499 1500 1501 1502 1504 1505 1506 1507 1507 1502 1502 1501 1501 1502 1502 1502 1504 1505 1505 1506 1505 1504 1506 1505 1503 1503 1505 1510 1513 1513 1513 1516 1518 1522 1526 1530 1531 1535
1497 1497 1495 1495 1495 1495 1496 1497 1499 1500 1502 1504 1505 1505 1506 1506 1501 1501 1500 1501 1501 1500 1500 1501 1500 1501 1503 1501 1503 1504 1505 1506 1506 1508 1511 1512 1513 1513 1518 1520 1523 1526 1530 1532 1534
1494 1493 1492 1493 1493 1494 1495 1497 1498 1500 1502 1503 1504 1504 1505 1500 1500 1500 1499 1499 1500 1500 1500 1499 1498 1502 1499 1501 1503 1505 1511 1509 1511 1510 1512 1512 1517 1518 1517 1522 1522 1525 1528 1532 1536
1491 1489 1489 1490 1491 1493 1494 1496 1498 1500 1502 1503 1503 1503 1501 1498 1498 1498 1499 1499 1498 1499 1499 1498 1497 1498 1497 1500 1504 1509 1515 1525 1514 1513 1514 1515 1528 1516 1519 1521 1523 1526 1530 1535 1538
1488 1486 1487 1488 1490 1492 1494 1496 1498 1501 1502 1503 1503 1503 1500 1497 1497 1497 1498 1498 1498 1498 1498 1497 1497 1497 1499 1508 1519 1519 1528 1522 1517 1512 1514 1516 1521 1517 1519 1521 1523 1529 1532 1535 1537
1485 1484 1485 1487 1489 1492 1495 1497 1500 1501 1502 1503 1503 1506 1498 1497 1497 1497 1498 1497 1497 1496 1496 1496 1498 1503 1507 1514 1534 1524 1522 1524 1524 1516 1515 1520 1519 1518 1518 1522 1526 1529 1531 1533 1536
1483 1483 1484 1487 1489 1492 1496 1498 1504 1504 1501 1497 1498 1496 1495 1496 1497 1496 1497 1497 1496 1498 1502 1499 1508 1513 1509 1509 1509 1512 1520 1523 1519 1513 1518 1521 1527 1526 1523 1525 1528 1530 1530 1533 1535
1481 1482 1484 1487 1490 1493 1497 1498 1499 1500 1498 1496 1496 1496 1495 1496 1497 1495 1497 1498 1499 1503 1500 1507 1512 1506 1507 1508 1509 1514 1521 1521 1516 1515 1517 1528 1535 1531 1530 1532 1531 1531 1534 1536 1538
1480 1483 1485 1488 1491 1494 1496 1498 1497 1497 1497 1495 1494 1495 1495 1496 1495 1496 1498 1499 1500 1503 1505 1514 1510 1506 1509 1515 1516 1522 1523 1521 1520 1519 1521 1527 1540 1541 1539 1536 1537 1539 1541 1544 1544
1481 1483 1485 1488 1494 1494 1496 1497 1497 1496 1507 1498 1494 1494 1494 1494 1496 1497 1497 1499 1500 1505 1509 1512 1509 1510 1513 1518 1519 1524 1517 1518 1521 1529 1543 1531 1561 1545 1544 1544 1544 1545 1545 1545 1547
1480 1483 1486 1490 1491 1494 1497 1496 1496 1497 1534 1496 1493 1493 1493 1495 1496 1497 1498 1499 1502 1504 1508 1518 1515 1515 1518 1517 1516 1522 1519 1522 1525 1535 1537 1538 1555 1550 1548 1551 1548 1546 1545 1546 1548
1480 1483 1486 1489 1492 1494 1495 1495 1497 1515 1521 1496 1491 1492 1494 1494 1496 1497 1499 1500 1502 1506 1508 1513 1513 1513 1515 1515 1516 1516 1522 1530 1535 1540 1559 1539 1548 1555 1549 1544 1546 1546 1547 1550 1551
1479 1483 1486 1489 1492 1493 1494 1495 1515 1527 1492 1498 1495 1493 1495 1498 1499 1499 1506 1508 1513 1524 1523 1520 1519 1516 1515 1518 1516 1520 1532 1559 1560 1567 1563 1541 1546 1546 1538 1538 1543 1545 1546 1549 1550
1479 1482 1485 1488 1490 1492 1493 1499 1513 1498 1494 1489 1491 1496 1501 1498 1503 1503 1509 1516 1512 1514 1528 1534 1539 1521 1517 1518 1522 1523 1530 1558 1548 1568 1561 1542 1548 1544 1534 1534 1541 1545 1546 1547 1549
1478 1482 1485 1487 1489 1491 1494 1516 1508 1499 1486 1490 1494 1501 1501 1498 1503 1507 1513 1516 1513 1513 1524 1531 1530 1519 1518 1517 1519 1523 1537 1531 1555 1566 1569 1557 1544 1540 1539 1539 1541 1542 1543 1545 1546
1477 1481 1484 1486 1489 1491 1498 1508 1495 1486 1484 1487 1499 1499 1506 1503 1506 1510 1513 1513 1513 1513 1513 1520 1533 1521 1519 1518 1519 1521 1525 1544 1556 1563 1558 1557 1550 1551 1543 1543 1541 1543 1541 1542 1544
1477 1480 1483 1485 1489 1492 1506 1502 1490 1484 1483 1487 1494 1499 1499 1504 1506 1512 1516 1516 1514 1513 1513 1516 1526 1532 1523 1527 1529 1529 1532 1540 1548 1563 1570 1577 1557 1535 1534 1536 1538 1538 1539 1541 1544
1473 1479 1481 1484 1489 1495 1498 1491 1487 1486 1483 1485 1488 1490 1497 1500 1510 1512 1516 1515 1514 1513 1518 1519 1532 1546 1531 1526 1523 1523 1528 1537 1563 1554 1574 1575 1559 1531 1530 1532 1534 1537 1540 1542 1543
1472 1477 1480 1481 1497 1499 1491 1488 1486 1486 1486 1487 1489 1490 1492 1502 1513 1513 1515 1515 1514 1515 1518 1519 1533 1554 1543 1535 1526 1526 1528 1538 1547 1558 1558 1579 1558 1533 1533 1536 1537 1536 1539 1541 1543
1471 1480 1480 1482 1483 1486 1490 1489 1488 1486 1487 1488 1489 1490 1494 1503 1507 1515 1516 1515 1515 1515 1516 1517 1529 1535 1547 1535 1531 1531 1530 1536 1541 1564 1557 1556 1540 1536 1537 1537 1538 1539 1540 1543 1544
1467 1470 1470 1484 1484 1484 1487 1488 1489 1490 1488 1488 1491 1492 1496 1506 1510 1515 1515 1516 1516 1516 1517 1519 1531 1530 1534 1534 1529 1528 1532 1536 1538 1540 1547 1539 1540 1532 1534 1535 1537 1539 1541 1542 1543
1465 1466 1469 1473 1476 1483 1487 1488 1489 1490 1490 1492 1495 1497 1496 1503 1504 1513 1512 1514 1515 1517 1520 1523 1538 1533 1536 1538 1538 1533 1532 1534 1535 1534 1536 1532 1535 1529 1533 1535 1537 1538 1540 1540 1541
1463 1463 1465 1475 1478 1484 1487 1485 1486 1487 1492 1491 1493 1499 1504 1502 1502 1504 1507 1509 1511 1516 1524 1529 1539 1547 1551 1549 1543 1550 1528 1526 1524 1523 1526 1537 1527 1528 1532 1533 1534 1535 1537 1538 1538